Regional Weather Roundup
Issued by NWS Charleston, SC

Current Version | Previous Version | Text Only | Print | Product List | Glossary Off
Versions: 1 2 3 4 5 6 7 8 9 10 11 12 13 14 15 16 17 18 19 20 21 22 23 24 25 26 27 28 29 30 31 32 33 34 35 36 37 38 39 40 41 42 43 44 45 46 47 48 49 50

000
ASUS42 KCHS 261825
RWRCHS

REGIONAL WEATHER ROUNDUP
NATIONAL WEATHER SERVICE CHARLESTON SC
100 PM EST WED NOV 26 2014

NOTE: "FAIR" INDICATES FEW OR NO CLOUDS BELOW 12,000 FEET WITH NO
SIGNIFICANT WEATHER AND/OR OBSTRUCTIONS TO VISIBILITY.

NOT ALL STATIONS ARE QUALITY CONTROLLED BY THE NATIONAL
WEATHER SERVICE. USE DATA WITH CAUTION...ESPECIALLY
DEWPOINT OBSERVATIONS.

SCZ027-030-031-034>040-042>050-261900-
...SOUTHEAST SOUTH CAROLINA...

CITY           SKY/WX    TMP DP  RH WIND       PRES   REMARKS
N CHARLESTON   CLOUDY    52  49  89 NW10      29.99F
6HR MIN TEMP:  52; 6HR MAX TEMP:  54; 6HR PCP:  0.07;

WATERFRONT PRK   N/A     54 N/A N/A W7G15       N/A
MOUNT PLEASANT NOT AVBL
JOHNS ISLAND   CLOUDY    54  54 100 NW9G18    30.01R
PINOPOLIS        N/A     54  48  82 NW14      29.92S
MONCKS CORNER  CLOUDY    54  52  94 NW5       30.00R
SUMMERVILLE    CLOUDY    52  50  93 W6        30.02R
BEAUFORT MCAS  PTSUNNY   56  50  80 W14       30.03S
6HR MIN TEMP:  52; 6HR MAX TEMP:  56; 6HR PCP:  0.09;

BEAUFORT ARPT  CLOUDY    55  52  88 W13G18    30.03R
HILTON HEAD IS PTSUNNY   54  50  87 W7        30.04F
WALTERBORO     CLOUDY    55 N/A N/A W13       30.03R
ALLENDALE      MOCLDY    57  48  72 W8        30.02F

...SOUTHERN MIDLANDS AND PEE DEE...

CITY           SKY/WX    TMP DP  RH WIND       PRES   REMARKS
GEORGETOWN     NOT AVBL
KINGSTREE      NOT AVBL
ORANGEBURG     CLOUDY    54  45  71 NW10      30.01F
6HR MIN TEMP:  49; 6HR MAX TEMP:  54; 6HR PCP:  0.06;

BARNWELL       MOCLDY    55  46  71 W9        30.03F
AIKEN          MOCLDY    55  45  67 W9        30.05F
MANNING        NOT AVBL
COLUMBIA       PTSUNNY   55  44  66 NW7       30.01F
6HR MIN TEMP:  49; 6HR MAX TEMP:  55; 6HR PCP:  0.14;

SUMTER         CLOUDY    52  45  76 NW7       29.99R
6HR MIN TEMP:  48; 6HR MAX TEMP:  51; 6HR PCP:  0.17;

FLORENCE       CLOUDY    50  46  86 NW8       29.98S
6HR MIN TEMP:  49; 6HR MAX TEMP:  52; 6HR PCP:  0.05;

MYRTLE BEACH   CLOUDY    52  46  82 W10       29.96R
N MYRTLE BEACH CLOUDY    51  47  86 VRB6      29.94R
6HR MIN TEMP:  51; 6HR MAX TEMP:  56; 6HR PCP:  0.09;


$$

GAZ063-065-086>088-099>101-113>116-118-119-134>141-150-261900-
...SOUTHEAST GEORGIA...

CITY           SKY/WX    TMP DP  RH WIND       PRES   REMARKS
SAVANNAH ARPT  PTSUNNY   57  46  67 W15       30.06S
6HR MIN TEMP:  51; 6HR MAX TEMP:  59; 6HR PCP:  0.02;

HUNTER AAF     CLOUDY    58  49  72 NW13G20   30.03F
6HR MIN TEMP:  50; 6HR MAX TEMP:  58; 6HR PCP:  0.03;

FORT STEWART   FAIR      58  46  63 W14G22    30.05F
6HR MIN TEMP:  49; 6HR MAX TEMP:  58; 6HR PCP:  0.01;

STATESBORO     NOT AVBL
SYLVANIA       FAIR      57  50  78 W8        30.05F
CLAXTON        FAIR      61  28  29 W13       30.06F

...CSRA...CENTRAL AND FAR SOUTHEAST GEORGIA...

CITY           SKY/WX    TMP DP  RH WIND       PRES   REMARKS
THOMSON        FAIR      58  47  66 W9        30.07F
AUGUSTA-BUSH   PTSUNNY   58  45  62 W12       30.04F
6HR MIN TEMP:  49; 6HR MAX TEMP:  58; 6HR PCP:  0.08;

AUGUSTA-DANIEL PTSUNNY   58  45  62 NW8       30.04F
SWAINSBORO     FAIR      61  46  59 W12       30.06F
VIDALIA        FAIR      59  43  55 W12       30.07F
HAZLEHURST     FAIR      60  41  49 W6G18     30.08S
ALMA           FAIR      59  42  53 W12G20    30.09F
6HR MIN TEMP:  48; 6HR MAX TEMP:  59; 6HR PCP: TRACE;

WAYCROSS       FAIR      63  44  51 NW10G16   30.09F
JESUP          FAIR      63  46  55 NW10G20   30.08S
BAXLEY         FAIR      61  41  48 W14G23    30.08S
BRUNSWICK      FAIR      59  46  63 W10G16    30.08S
SAINT SIMONS   FAIR      57  47  69 W10       30.08S
6HR MIN TEMP:  49; 6HR MAX TEMP:  57; 6HR PCP:  0.05;


$$

SCZ027-028-034-036>038-045-046-048>050-GAZ119-141-261900-
...LAKE AND SUPPLEMENTAL COASTAL OBSERVATIONS...

STATION/POSITION TIME  TEMP    WIND        PRES    WAVE   SWELL
                       AIR SEA DIR/SP/G            HT/PER HT/PER/DIR
                 (UTC) (F)     (DEG/KT/KT) (MB)    (FT/S) (FT/S/D)
UPR LAKE MARION  NOT AVBL
WINYAH BAY       1800   52     300/  8     1014.0S
LAKE MURRAY      1700   53     280/  4/  9 1015.9F
ACE BASIN NERRS  1800   53     290/  3     1016.0S
FORT PULASKI     1800   54     290/ 15/ 19 1017.6R
SAPELO ISLAND    1800   57     280/ 10     1018.0S

$$

ANZ835-935-AMZ111-154-330-350-352-354-370-450-454-472-261900-
...C-MAN AND BUOY OBSERVATIONS...

STATION/POSITION TIME  TEMP    WIND        PRES    WAVE   SWELL
                       AIR SEA DIR/SP/G            HT/PER HT/PER/DIR
                 (UTC) (F)     (DEG/KT/KT) (MB)    (FT/S) (FT/S/D)
FOLLY BEACH CMAN 1800   53     290/  8/ 12 1016.1R
BUOY 41004       1800   58 74  310/ 21/ 25 1013.9R   7/ 6   2/10
BUOY 41008       1800   54 64  300/ 17/ 21 1017.4F   4/ 4   2/120/10
CAPERS NEARSHORE 1700   54     290/ 17/ 19   N/A
FRIPP NEARSHORE  NOT AVBL


STATION/POSITION TIME  TEMP    WIND        PRES    WAVE   SWELL
                       AIR SEA DIR/SP/G            HT/PER HT/PER/DIR
                 (UTC) (F)     (DEG/KT/KT) (MB)    (FT/S) (FT/S/D)
5E ST. MARYS GA  1800      63                N/A     3/10
FRYING PAN BUOY  1800   55 71  300/ 16/ 19 1011.4R   7/ 8   3/170/ 8
BUOY 41025       1800   73     220/ 25/ 31 1003.4F  13/ 8   2/200/16
CAPE LOOKOUT NC  1800          330/ 14/ 18 1007.1R
BUOY 41002       1659   76 74  200/ 23/ 29 1011.2F   9/ 8
BUOY 41010       1800   70 78  310/ 19/ 21 1015.3F   8/ 9   3/110/ 9
ST AUGUSTINE FL  1800   54     300/ 11/ 14 1019.9F


$$



USA.gov is the U.S. government's official web portal to all federal, state and local government web resources and services.